Location: Peebles
(55.6412°N, 3.1714°W)
Time: 11:11:48
(UTC+01:00)

KEPLER-1 (CASE) - Pass Details

Date: 01 July 2022
Orbit: 435 x 454 km, 97.4° (Epoch: 16 August)

Event Time Altitude Azimuth Distance (km) Brightness Sun altitude
Exits shadow 22:53:07 - 138° (SE) 1,790 ? -5.6°
Reaches altitude 10° 22:53:41 10° 134° (SE) 1,562 ? -5.6°
Maximum altitude 22:56:46 36° 67° (ENE) 732 ? -5.9°
Drops below altitude 10° 22:59:55 10° 360° (N) 1,588 ? -6.1°
Sets 23:02:03 0° 352° (N) 2,471 ? -6.3°
